TimeEDT,TemperatureF,Dew PointF,Humidity,Sea Level PressureIn,VisibilityMPH,Wind Direction,Wind SpeedMPH,Gust SpeedMPH,PrecipitationIn,Events,Conditions,WindDirDegrees,DateUTC
12:15 AM,60.8,60.8,100,29.90,2.5,SSW,9.2,-,N/A,Rain,Light Rain,210,2013-10-31 04:15:00
12:35 AM,62.6,60.8,94,29.89,3.0,SSW,5.8,17.3,N/A,,Overcast,200,2013-10-31 04:35:00
12:55 AM,62.6,60.8,94,29.87,4.0,SSW,5.8,-,N/A,Rain,Light Rain,200,2013-10-31 04:55:00
1:15 AM,62.6,60.8,94,29.86,5.0,SSW,9.2,16.1,N/A,,Overcast,200,2013-10-31 05:15:00
1:35 AM,62.6,60.8,94,29.86,5.0,SSW,8.1,16.1,N/A,,Overcast,210,2013-10-31 05:35:00
1:55 AM,62.6,60.8,94,29.85,7.0,SSW,12.7,19.6,N/A,,Overcast,200,2013-10-31 05:55:00
2:15 AM,62.6,60.8,94,29.84,5.0,SSW,10.4,16.1,N/A,Rain,Light Rain,200,2013-10-31 06:15:00
2:35 AM,62.6,60.8,94,29.84,5.0,SW,9.2,16.1,N/A,Rain,Light Rain,220,2013-10-31 06:35:00
2:55 AM,62.6,60.8,94,29.84,7.0,SW,9.2,16.1,N/A,Rain,Light Rain,220,2013-10-31 06:55:00
3:15 AM,62.6,60.8,94,29.84,7.0,SW,11.5,18.4,N/A,,Drizzle,220,2013-10-31 07:15:00
3:35 AM,62.6,60.8,94,29.84,5.0,SW,6.9,18.4,N/A,Rain,Light Rain,220,2013-10-31 07:35:00
3:55 AM,62.6,60.8,94,29.83,7.0,SW,10.4,19.6,N/A,Rain,Light Rain,230,2013-10-31 07:55:00
4:15 AM,62.6,60.8,94,29.82,7.0,SSW,6.9,-,N/A,Rain,Rain,210,2013-10-31 08:15:00
4:35 AM,62.6,60.8,94,29.81,7.0,SSW,8.1,21.9,N/A,Rain,Light Rain,210,2013-10-31 08:35:00
4:55 AM,62.6,60.8,94,29.80,10.0,SSW,10.4,16.1,N/A,Rain,Light Rain,210,2013-10-31 08:55:00
5:15 AM,60.8,60.8,100,29.79,10.0,SW,8.1,-,N/A,Rain,Light Rain,220,2013-10-31 09:15:00
5:35 AM,60.8,59.0,94,29.78,10.0,SW,6.9,-,N/A,Rain,Light Rain,220,2013-10-31 09:35:00
5:55 AM,60.8,59.0,94,29.77,7.0,SSW,4.6,-,N/A,Rain,Light Rain,210,2013-10-31 09:55:00
6:15 AM,60.8,60.8,100,29.77,5.0,SSW,6.9,-,N/A,Rain,Rain,200,2013-10-31 10:15:00
6:35 AM,60.8,59.0,94,29.75,7.0,South,5.8,-,N/A,Rain,Rain,190,2013-10-31 10:35:00
6:55 AM,60.8,60.8,100,29.75,5.0,SSW,6.9,19.6,N/A,Rain,Rain,200,2013-10-31 10:55:00
7:15 AM,60.8,59.0,94,29.73,5.0,SSW,10.4,21.9,N/A,Rain,Rain,210,2013-10-31 11:15:00
7:35 AM,60.8,59.0,94,29.73,5.0,SSW,8.1,16.1,N/A,Rain,Rain,200,2013-10-31 11:35:00
7:55 AM,60.8,59.0,94,29.72,5.0,SSW,15.0,27.6,N/A,Rain,Light Rain,200,2013-10-31 11:55:00
8:15 AM,60.8,59.0,94,29.71,7.0,SSW,9.2,23.0,N/A,Rain,Rain,200,2013-10-31 12:15:00
8:35 AM,60.8,59.0,94,29.71,7.0,SSW,10.4,20.7,N/A,Rain,Light Rain,210,2013-10-31 12:35:00
8:55 AM,59.0,59.0,100,29.70,7.0,SSW,10.4,17.3,N/A,Rain,Light Rain,200,2013-10-31 12:55:00
9:15 AM,59.0,57.2,94,29.69,4.0,SSW,10.4,21.9,N/A,Rain,Rain,200,2013-10-31 13:15:00
9:35 AM,59.0,59.0,100,29.69,5.0,SSW,9.2,16.1,N/A,Rain,Light Rain,210,2013-10-31 13:35:00
9:55 AM,59.0,59.0,100,29.69,4.0,SSW,10.4,19.6,N/A,Rain,Rain,200,2013-10-31 13:55:00
10:15 AM,59.0,57.2,94,29.68,4.0,SSW,8.1,19.6,N/A,Rain,Rain,200,2013-10-31 14:15:00
10:35 AM,59.0,57.2,94,29.67,4.0,SSW,10.4,16.1,N/A,Rain,Light Rain,200,2013-10-31 14:35:00
10:55 AM,59.0,57.2,94,29.67,4.0,SSW,11.5,17.3,N/A,Rain,Rain,210,2013-10-31 14:55:00
11:15 AM,59.0,57.2,94,29.66,7.0,SW,13.8,21.9,N/A,Rain,Rain,220,2013-10-31 15:15:00
11:35 AM,59.0,57.2,94,29.65,7.0,SW,13.8,23.0,N/A,Rain,Rain,220,2013-10-31 15:35:00
11:55 AM,59.0,57.2,94,29.65,5.0,SSW,10.4,20.7,N/A,Rain,Rain,210,2013-10-31 15:55:00
12:15 PM,59.0,57.2,94,29.63,7.0,SSW,17.3,24.2,N/A,Rain,Light Rain,200,2013-10-31 16:15:00
12:35 PM,59.0,57.2,94,29.63,10.0,SSW,15.0,23.0,N/A,Rain,Light Rain,210,2013-10-31 16:35:00
12:55 PM,59.0,57.2,94,29.61,7.0,South,10.4,20.7,N/A,Rain,Light Rain,190,2013-10-31 16:55:00
1:15 PM,59.0,57.2,94,29.60,7.0,SSW,11.5,20.7,N/A,Rain,Rain,200,2013-10-31 17:15:00
1:35 PM,59.0,57.2,94,29.58,7.0,South,9.2,20.7,N/A,Rain,Rain,190,2013-10-31 17:35:00
1:55 PM,59.0,57.2,94,29.55,7.0,South,12.7,20.7,N/A,Rain,Rain,190,2013-10-31 17:55:00
2:15 PM,59.0,57.2,94,29.53,7.0,SSW,10.4,20.7,N/A,Rain,Rain,200,2013-10-31 18:15:00
2:35 PM,59.0,57.2,94,29.51,3.0,South,10.4,19.6,N/A,Rain,Rain,180,2013-10-31 18:35:00
2:55 PM,59.0,57.2,94,29.49,4.0,South,6.9,-,N/A,Rain,Rain,180,2013-10-31 18:55:00
3:15 PM,59.0,57.2,94,29.47,4.0,South,5.8,16.1,N/A,Rain,Light Rain,180,2013-10-31 19:15:00
3:35 PM,59.0,57.2,94,29.45,4.0,South,8.1,-,N/A,,Heavy Drizzle,180,2013-10-31 19:35:00
3:55 PM,59.0,57.2,94,29.43,3.0,South,10.4,-,N/A,,Heavy Drizzle,190,2013-10-31 19:55:00
4:15 PM,59.0,57.2,94,29.41,2.5,South,6.9,-,N/A,,Heavy Drizzle,180,2013-10-31 20:15:00
4:35 PM,59.0,57.2,94,29.39,3.0,South,8.1,16.1,N/A,,Drizzle,190,2013-10-31 20:35:00
4:55 PM,59.0,57.2,94,29.38,3.0,South,6.9,-,N/A,,Drizzle,180,2013-10-31 20:55:00
5:15 PM,59.0,57.2,94,29.38,3.0,South,8.1,19.6,N/A,Rain,Light Rain,180,2013-10-31 21:15:00
5:35 PM,59.0,59.0,100,29.36,2.5,SSW,8.1,16.1,N/A,Rain,Light Rain,200,2013-10-31 21:35:00
5:55 PM,59.0,59.0,100,29.35,3.0,SSW,8.1,21.9,N/A,,Light Drizzle,200,2013-10-31 21:55:00
6:15 PM,59.0,59.0,100,29.34,10.0,South,6.9,-,N/A,,Overcast,190,2013-10-31 22:15:00
6:35 PM,60.8,59.0,94,29.33,4.0,SSW,6.9,-,N/A,,Overcast,210,2013-10-31 22:35:00
6:55 PM,60.8,59.0,94,29.32,10.0,SSW,6.9,17.3,N/A,Rain,Rain,210,2013-10-31 22:55:00
7:15 PM,60.8,59.0,94,29.31,10.0,South,4.6,18.4,N/A,,Overcast,190,2013-10-31 23:15:00
7:35 PM,60.8,60.8,100,29.30,10.0,SSW,8.1,-,N/A,Rain,Light Rain,210,2013-10-31 23:35:00
7:55 PM,60.8,60.8,100,29.30,7.0,SSW,9.2,18.4,N/A,Rain,Rain,210,2013-10-31 23:55:00
8:15 PM,60.8,60.8,100,29.29,7.0,SSW,9.2,17.3,N/A,Rain,Light Rain,210,2013-11-01 00:15:00
8:35 PM,60.8,60.8,100,29.28,10.0,SSW,9.2,-,N/A,Rain,Light Rain,200,2013-11-01 00:35:00
8:55 PM,60.8,60.8,100,29.27,10.0,SSW,8.1,-,N/A,Rain,Rain,210,2013-11-01 00:55:00
9:15 PM,60.8,59.0,94,29.27,10.0,SSW,8.1,-,N/A,Rain,Light Rain,210,2013-11-01 01:15:00
9:35 PM,60.8,59.0,94,29.27,5.0,WSW,13.8,20.7,N/A,Rain,Rain,250,2013-11-01 01:35:00
9:55 PM,59.0,55.4,88,29.26,10.0,WSW,16.1,21.9,N/A,Rain,Rain,250,2013-11-01 01:55:00
10:15 PM,57.2,55.4,94,29.28,10.0,WSW,15.0,24.2,N/A,Rain,Light Rain,250,2013-11-01 02:15:00
10:35 PM,57.2,55.4,94,29.30,10.0,WSW,17.3,25.3,N/A,Rain,Light Rain,250,2013-11-01 02:35:00
10:55 PM,55.4,53.6,94,29.32,10.0,West,23.0,31.1,N/A,Rain,Light Rain,260,2013-11-01 02:55:00
11:15 PM,53.6,51.8,94,29.31,10.0,West,20.7,27.6,N/A,Rain,Light Rain,270,2013-11-01 03:15:00
11:35 PM,53.6,51.8,94,29.29,10.0,West,18.4,26.5,N/A,Rain,Light Rain,280,2013-11-01 03:35:00
11:55 PM,51.8,51.8,100,29.33,10.0,West,20.7,27.6,N/A,Rain,Light Rain,260,2013-11-01 03:55:00